Time,TemperatureF,DewpointF,PressureIn,WindDirection,WindDirectionDegrees,WindSpeedMPH,WindSpeedGustMPH,Humidity,HourlyPrecipIn,Conditions,Clouds,dailyrainin,SoftwareType,DateUTC
2013-01-03 00:10:00,31.1,27.0,30.20,West,263,0.0,5.0,83,0.00,,,0.00,weatherlink.com 1.10,2013-01-03 06:10:00,
2013-01-03 00:25:00,31.0,26.0,30.20,West,274,0.0,2.0,83,0.00,,,0.00,weatherlink.com 1.10,2013-01-03 06:25:00,
2013-01-03 00:40:00,31.1,27.0,30.20,WNW,299,2.0,4.0,83,0.00,,,0.00,weatherlink.com 1.10,2013-01-03 06:40:00,
2013-01-03 00:55:00,31.2,26.0,30.20,WNW,288,0.0,3.0,82,0.00,,,0.00,weatherlink.com 1.10,2013-01-03 06:55:00,
2013-01-03 01:10:00,31.1,26.0,30.20,WNW,288,0.0,1.0,82,0.00,,,0.00,weatherlink.com 1.10,2013-01-03 07:10:00,
2013-01-03 01:25:00,31.1,26.0,30.21,WNW,301,0.0,4.0,82,0.00,,,0.00,weatherlink.com 1.10,2013-01-03 07:25:00,
2013-01-03 01:40:00,31.1,27.0,30.21,NW,304,0.0,2.0,83,0.00,,,0.00,weatherlink.com 1.10,2013-01-03 07:40:00,
2013-01-03 01:55:00,31.3,26.0,30.21,NNW,335,0.0,5.0,82,0.00,,,0.00,weatherlink.com 1.10,2013-01-03 07:55:00,
2013-01-03 02:10:00,31.2,26.0,30.22,NW,325,0.0,4.0,82,0.00,,,0.00,weatherlink.com 1.10,2013-01-03 08:10:00,
2013-01-03 02:25:00,31.2,26.0,30.22,NNW,346,1.0,4.0,82,0.00,,,0.00,weatherlink.com 1.10,2013-01-03 08:25:00,
2013-01-03 02:40:00,31.2,26.0,30.23,NW,304,4.0,5.0,81,0.00,,,0.00,weatherlink.com 1.10,2013-01-03 08:40:00,
2013-01-03 02:55:00,31.1,26.0,30.24,NW,309,0.0,4.0,82,0.00,,,0.00,weatherlink.com 1.10,2013-01-03 08:55:00,
2013-01-03 03:10:00,31.0,26.0,30.24,NW,309,0.0,1.0,82,0.00,,,0.00,weatherlink.com 1.10,2013-01-03 09:10:00,
2013-01-03 03:25:00,30.8,26.0,30.24,NW,309,0.0,0.0,82,0.00,,,0.00,weatherlink.com 1.10,2013-01-03 09:25:00,
2013-01-03 03:55:00,30.7,26.0,30.24,NW,305,0.0,5.0,82,0.00,,,0.00,weatherlink.com 1.10,2013-01-03 09:55:00,
2013-01-03 04:10:00,30.6,26.0,30.24,NW,306,0.0,5.0,83,0.00,,,0.00,weatherlink.com 1.10,2013-01-03 10:10:00,
2013-01-03 04:26:00,30.5,26.0,30.25,NW,315,0.0,6.0,83,0.00,,,0.00,weatherlink.com 1.10,2013-01-03 10:26:00,
2013-01-03 04:41:00,30.2,26.0,30.25,NW,307,0.0,7.0,83,0.00,,,0.00,weatherlink.com 1.10,2013-01-03 10:41:00,
2013-01-03 04:56:00,30.1,25.0,30.25,NW,310,4.0,4.0,82,0.00,,,0.00,weatherlink.com 1.10,2013-01-03 10:56:00,
2013-01-03 05:11:00,30.0,25.0,30.25,West,281,1.0,8.0,82,0.00,,,0.00,weatherlink.com 1.10,2013-01-03 11:11:00,
2013-01-03 05:26:00,29.9,25.0,30.26,NW,311,3.0,3.0,82,0.00,,,0.00,weatherlink.com 1.10,2013-01-03 11:26:00,
2013-01-03 05:41:00,29.8,25.0,30.26,North,349,0.0,8.0,81,0.00,,,0.00,weatherlink.com 1.10,2013-01-03 11:41:00,
2013-01-03 05:56:00,29.7,25.0,30.27,WNW,294,1.0,5.0,81,0.00,,,0.00,weatherlink.com 1.10,2013-01-03 11:56:00,
2013-01-03 06:11:00,29.7,24.0,30.27,NNW,341,0.0,7.0,80,0.00,,,0.00,weatherlink.com 1.10,2013-01-03 12:11:00,
2013-01-03 06:26:00,29.9,24.0,30.28,NW,316,1.0,8.0,79,0.00,,,0.00,weatherlink.com 1.10,2013-01-03 12:26:00,
2013-01-03 06:41:00,29.8,24.0,30.29,NNW,337,0.0,9.0,80,0.00,,,0.00,weatherlink.com 1.10,2013-01-03 12:41:00,
2013-01-03 06:56:00,29.6,24.0,30.29,NW,311,0.0,7.0,80,0.00,,,0.00,weatherlink.com 1.10,2013-01-03 12:56:00,
2013-01-03 07:11:00,29.5,24.0,30.30,NNW,343,6.0,10.0,81,0.00,,,0.00,weatherlink.com 1.10,2013-01-03 13:11:00,
2013-01-03 07:26:00,29.4,24.0,30.30,NNW,335,3.0,6.0,81,0.00,,,0.00,weatherlink.com 1.10,2013-01-03 13:26:00,
2013-01-03 07:41:00,29.3,24.0,30.30,NNW,333,3.0,5.0,81,0.00,,,0.00,weatherlink.com 1.10,2013-01-03 13:41:00,
2013-01-03 07:56:00,27.8,23.0,30.31,NNE,16,5.0,16.0,81,0.00,,,0.00,weatherlink.com 1.10,2013-01-03 13:56:00,
2013-01-03 08:11:00,26.8,22.0,30.32,NNE,16,2.0,15.0,82,0.00,,,0.00,weatherlink.com 1.10,2013-01-03 14:11:00,
2013-01-03 08:26:00,26.0,21.0,30.33,NNE,14,1.0,12.0,80,0.00,,,0.00,weatherlink.com 1.10,2013-01-03 14:26:00,
2013-01-03 08:41:00,25.6,20.0,30.34,NNW,336,5.0,9.0,79,0.00,,,0.00,weatherlink.com 1.10,2013-01-03 14:41:00,
2013-01-03 08:56:00,25.4,19.0,30.34,NW,317,6.0,13.0,78,0.00,,,0.00,weatherlink.com 1.10,2013-01-03 14:56:00,
2013-01-03 09:11:00,25.2,20.0,30.35,NNE,14,6.0,12.0,79,0.00,,,0.00,weatherlink.com 1.10,2013-01-03 15:11:00,
2013-01-03 09:26:00,24.5,18.0,30.36,North,6,12.0,15.0,77,0.00,,,0.00,weatherlink.com 1.10,2013-01-03 15:26:00,
2013-01-03 09:41:00,24.1,18.0,30.36,NW,323,7.0,12.0,77,0.00,,,0.00,weatherlink.com 1.10,2013-01-03 15:41:00,
2013-01-03 09:56:00,23.7,18.0,30.37,NW,318,4.0,11.0,77,0.00,,,0.00,weatherlink.com 1.10,2013-01-03 15:56:00,
2013-01-03 10:11:00,22.7,17.0,30.38,North,10,8.0,14.0,77,0.00,,,0.00,weatherlink.com 1.10,2013-01-03 16:11:00,
2013-01-03 10:26:00,22.5,17.0,30.38,NNW,331,0.0,11.0,78,0.00,,,0.00,weatherlink.com 1.10,2013-01-03 16:26:00,
2013-01-03 10:42:00,23.0,17.0,30.39,NW,318,6.0,8.0,77,0.00,,,0.00,weatherlink.com 1.10,2013-01-03 16:42:00,
2013-01-03 10:57:00,23.1,17.0,30.38,NNW,339,1.0,7.0,76,0.00,,,0.00,weatherlink.com 1.10,2013-01-03 16:57:00,
2013-01-03 11:12:00,23.4,17.0,30.38,NW,326,9.0,9.0,76,0.00,,,0.00,weatherlink.com 1.10,2013-01-03 17:12:00,
2013-01-03 11:27:00,23.4,15.0,30.37,NW,319,5.0,9.0,70,0.00,,,0.00,weatherlink.com 1.10,2013-01-03 17:27:00,
2013-01-03 11:42:00,22.7,15.0,30.37,WNW,290,12.0,13.0,71,0.00,,,0.00,weatherlink.com 1.10,2013-01-03 17:42:00,
2013-01-03 11:57:00,22.8,15.0,30.36,NNW,340,1.0,11.0,73,0.00,,,0.00,weatherlink.com 1.10,2013-01-03 17:57:00,
2013-01-03 12:12:00,22.7,15.0,30.36,NNW,331,1.0,11.0,73,0.00,,,0.00,weatherlink.com 1.10,2013-01-03 18:12:00,
2013-01-03 12:27:00,22.4,15.0,30.36,WSW,254,3.0,11.0,73,0.00,,,0.00,weatherlink.com 1.10,2013-01-03 18:27:00,
2013-01-03 12:42:00,22.7,14.0,30.35,NNW,334,2.0,10.0,69,0.00,,,0.00,weatherlink.com 1.10,2013-01-03 18:42:00,
2013-01-03 12:57:00,23.0,14.0,30.36,NW,324,7.0,8.0,68,0.00,,,0.00,weatherlink.com 1.10,2013-01-03 18:57:00,
2013-01-03 13:12:00,22.7,14.0,30.35,North,358,5.0,9.0,70,0.00,,,0.00,weatherlink.com 1.10,2013-01-03 19:12:00,
2013-01-03 13:57:00,23.5,16.0,30.34,NNW,332,5.0,8.0,72,0.00,,,0.00,weatherlink.com 1.10,2013-01-03 19:57:00,
2013-01-03 14:12:00,23.6,15.0,30.34,NNW,340,4.0,7.0,71,0.00,,,0.00,weatherlink.com 1.10,2013-01-03 20:12:00,
2013-01-03 14:27:00,23.3,16.0,30.34,North,3,3.0,8.0,73,0.00,,,0.00,weatherlink.com 1.10,2013-01-03 20:27:00,
2013-01-03 14:42:00,23.7,16.0,30.34,NNW,340,3.0,5.0,73,0.00,,,0.00,weatherlink.com 1.10,2013-01-03 20:42:00,
2013-01-03 14:57:00,23.8,16.0,30.35,WNW,301,1.0,7.0,73,0.00,,,0.00,weatherlink.com 1.10,2013-01-03 20:57:00,
2013-01-03 15:12:00,23.5,16.0,30.35,NW,322,0.0,2.0,73,0.00,,,0.00,weatherlink.com 1.10,2013-01-03 21:12:00,
2013-01-03 15:27:00,23.6,16.0,30.35,NW,322,0.0,1.0,74,0.00,,,0.00,weatherlink.com 1.10,2013-01-03 21:27:00,
2013-01-03 15:57:00,23.5,17.0,30.34,NW,321,0.0,3.0,75,0.00,,,0.00,weatherlink.com 1.10,2013-01-03 21:57:00,
2013-01-03 16:12:00,23.6,17.0,30.34,West,280,0.0,3.0,76,0.00,,,0.00,weatherlink.com 1.10,2013-01-03 22:12:00,
2013-01-03 16:27:00,23.5,17.0,30.34,West,279,0.0,5.0,76,0.00,,,0.00,weatherlink.com 1.10,2013-01-03 22:27:00,
2013-01-03 16:57:00,23.1,17.0,30.34,SW,231,3.0,5.0,76,0.00,,,0.00,weatherlink.com 1.10,2013-01-03 22:57:00,
2013-01-03 17:12:00,22.8,17.0,30.35,SW,235,0.0,4.0,77,0.00,,,0.00,weatherlink.com 1.10,2013-01-03 23:12:00,
2013-01-03 17:27:00,22.3,16.0,30.35,SW,235,0.0,0.0,77,0.00,,,0.00,weatherlink.com 1.10,2013-01-03 23:27:00,
2013-01-03 17:42:00,21.5,15.0,30.35,SW,235,0.0,0.0,77,0.00,,,0.00,weatherlink.com 1.10,2013-01-03 23:42:00,
2013-01-03 17:57:00,20.6,15.0,30.35,SW,235,0.0,1.0,79,0.00,,,0.00,weatherlink.com 1.10,2013-01-03 23:57:00,
2013-01-03 18:12:00,19.5,14.0,30.34,SW,235,0.0,0.0,80,0.00,,,0.00,weatherlink.com 1.10,2013-01-04 00:12:00,
2013-01-03 18:27:00,19.2,15.0,30.35,SW,235,0.0,1.0,82,0.00,,,0.00,weatherlink.com 1.10,2013-01-04 00:27:00,
2013-01-03 18:42:00,19.0,14.0,30.34,SW,235,0.0,0.0,82,0.00,,,0.00,weatherlink.com 1.10,2013-01-04 00:42:00,
2013-01-03 18:57:00,19.1,15.0,30.34,SW,235,0.0,2.0,83,0.00,,,0.00,weatherlink.com 1.10,2013-01-04 00:57:00,
2013-01-03 19:12:00,18.7,14.0,30.34,SW,235,0.0,3.0,82,0.00,,,0.00,weatherlink.com 1.10,2013-01-04 01:12:00,
2013-01-03 19:27:00,18.2,14.0,30.34,SW,235,0.0,2.0,82,0.00,,,0.00,weatherlink.com 1.10,2013-01-04 01:27:00,
2013-01-03 19:42:00,17.6,13.0,30.34,SW,235,0.0,1.0,83,0.00,,,0.00,weatherlink.com 1.10,2013-01-04 01:42:00,
2013-01-03 19:57:00,17.1,13.0,30.33,SW,235,0.0,3.0,84,0.00,,,0.00,weatherlink.com 1.10,2013-01-04 01:57:00,
2013-01-03 20:12:00,16.8,13.0,30.33,SW,235,0.0,0.0,84,0.00,,,0.00,weatherlink.com 1.10,2013-01-04 02:12:00,
2013-01-03 20:27:00,15.4,11.0,30.33,SW,235,0.0,0.0,82,0.00,,,0.00,weatherlink.com 1.10,2013-01-04 02:27:00,
2013-01-03 20:42:00,14.8,11.0,30.33,SW,235,0.0,0.0,85,0.00,,,0.00,weatherlink.com 1.10,2013-01-04 02:42:00,
2013-01-03 20:57:00,16.2,13.0,30.32,SW,235,0.0,2.0,87,0.00,,,0.00,weatherlink.com 1.10,2013-01-04 02:57:00,
2013-01-03 21:12:00,17.1,14.0,30.31,South,188,0.0,5.0,87,0.00,,,0.00,weatherlink.com 1.10,2013-01-04 03:12:00,
2013-01-03 21:27:00,17.7,14.0,30.32,SSW,208,1.0,5.0,85,0.00,,,0.00,weatherlink.com 1.10,2013-01-04 03:27:00,
2013-01-03 21:42:00,17.9,14.0,30.32,SSW,208,0.0,0.0,85,0.00,,,0.00,weatherlink.com 1.10,2013-01-04 03:42:00,
2013-01-03 21:57:00,17.9,14.0,30.31,SSW,205,0.0,5.0,85,0.00,,,0.00,weatherlink.com 1.10,2013-01-04 03:57:00,
2013-01-03 22:12:00,17.9,14.0,30.31,SSW,204,1.0,4.0,84,0.00,,,0.00,weatherlink.com 1.10,2013-01-04 04:12:00,
2013-01-03 22:27:00,17.9,14.0,30.31,SSW,204,0.0,6.0,84,0.00,,,0.00,weatherlink.com 1.10,2013-01-04 04:27:00,
2013-01-03 22:42:00,17.6,13.0,30.31,SSW,206,0.0,5.0,83,0.00,,,0.00,weatherlink.com 1.10,2013-01-04 04:42:00,
2013-01-03 22:57:00,18.1,14.0,30.31,SW,221,4.0,7.0,84,0.00,,,0.00,weatherlink.com 1.10,2013-01-04 04:57:00,
2013-01-03 23:13:00,18.3,14.0,30.30,SW,224,3.0,7.0,84,0.00,,,0.00,weatherlink.com 1.10,2013-01-04 05:13:00,
2013-01-03 23:28:00,18.7,15.0,30.30,SSW,211,2.0,6.0,84,0.00,,,0.00,weatherlink.com 1.10,2013-01-04 05:28:00,
2013-01-03 23:43:00,19.4,15.0,30.30,SW,231,3.0,9.0,83,0.00,,,0.00,weatherlink.com 1.10,2013-01-04 05:43:00,
2013-01-03 23:58:00,19.5,15.0,30.30,SW,235,2.0,11.0,82,0.00,,,0.00,weatherlink.com 1.10,2013-01-04 05:58:00,